Location: Ariel
(45.9570°N, 122.5700°W)
Time: 19:49:03
(UTC-07:00)

Vanguard 1 - All Passes

Search period start: 23 July 2019 00:00
Search period end: 02 August 2019 00:00
Orbit: 653 x 3830 km, 34.3° (Epoch: 22 July)

Date Brightness Start Highest point End Pass type
(mag) Time Alt. Az. Time Alt. Az. Time Alt. Az.
23 Jul - 01:49:40 10° W 02:08:20 36° SW 02:26:42 10° SSE visible
23 Jul - 04:23:26 10° WSW 04:29:57 12° WSW 04:36:11 10° SW visible
23 Jul - 16:53:34 10° SSE 16:58:09 13° SE 17:03:44 10° ESE daylight
23 Jul - 19:06:25 10° SSW 19:17:24 40° SSE 19:35:09 10° E daylight
23 Jul - 21:25:17 10° WSW 21:40:11 58° S 22:02:25 10° ESE visible
23 Jul - 23:46:48 10° W 00:05:03 51° SSW 00:26:51 10° SE visible
24 Jul - 02:11:37 10° W 02:28:59 30° SW 02:46:02 10° S visible
24 Jul - 17:11:28 10° S 17:18:11 19° SE 17:27:26 10° E daylight
24 Jul - 19:26:43 10° SW 19:38:05 46° SSE 19:56:49 10° E daylight
24 Jul - 21:46:08 10° WSW 22:01:21 58° S 22:23:42 10° ESE visible
25 Jul - 00:08:03 10° W 00:26:08 47° SSW 00:47:18 10° SE visible
25 Jul - 02:34:04 10° W 02:49:31 24° SW 03:04:43 10° S visible
25 Jul - 17:30:35 10° S 17:38:21 25° SE 17:50:00 10° E daylight
25 Jul - 19:47:12 10° SW 19:58:53 50° SSE 20:18:24 10° E daylight
25 Jul - 22:07:04 10° WSW 22:22:32 56° S 22:44:50 10° ESE visible
26 Jul - 00:29:25 10° W 00:47:07 41° SSW 01:07:28 10° SSE visible
26 Jul - 02:57:28 10° W 03:09:57 18° SW 03:22:18 10° SSW visible
26 Jul - 17:50:15 10° SSW 17:58:40 31° SE 18:12:04 10° E daylight
26 Jul - 20:07:48 10° WSW 20:19:50 53° SSE 20:39:54 10° E daylight
26 Jul - 22:28:05 10° W 22:43:43 53° SSW 23:05:48 10° SE visible
27 Jul - 00:51:00 10° W 01:08:01 35° SW 01:27:13 10° SSE visible
27 Jul - 03:23:22 10° WSW 03:30:19 12° SW 03:37:14 10° SW visible
27 Jul - 18:10:16 10° SSW 18:19:08 36° SSE 18:33:53 10° E daylight
27 Jul - 20:28:31 10° WSW 20:40:51 55° S 21:01:20 10° ESE daylight
27 Jul - 22:49:09 10° W 23:04:53 49° SSW 23:26:33 10° SE visible
28 Jul - 01:12:53 10° W 01:28:49 29° SW 01:46:29 10° SSE visible
28 Jul - 16:16:06 10° SSE 16:20:36 15° SE 16:26:21 10° ESE daylight
28 Jul - 18:30:32 10° SW 18:39:44 42° SSE 18:55:33 10° E daylight
28 Jul - 20:49:20 10° WSW 21:01:57 55° S 21:22:39 10° ESE visible
28 Jul - 23:10:20 10° W 23:25:59 44° SSW 23:47:01 10° SE visible
29 Jul - 01:35:17 10° W 01:49:30 23° SW 02:05:01 10° S visible
29 Jul - 16:34:55 10° S 16:40:46 20° SE 16:49:08 10° E daylight
29 Jul - 18:50:59 10° SW 19:00:30 46° SSE 19:17:08 10° E daylight
29 Jul - 21:10:12 10° WSW 21:23:04 53° S 21:43:49 10° ESE visible
29 Jul - 23:31:39 10° W 23:47:02 39° SSW 00:07:09 10° SSE visible
30 Jul - 01:58:42 10° W 02:10:08 17° SW 02:22:21 10° SSW visible
30 Jul - 16:54:30 10° SSW 17:01:04 26° SE 17:11:15 10° E daylight
30 Jul - 19:11:34 10° WSW 19:21:21 49° SSE 19:38:37 10° E daylight
30 Jul - 21:31:09 10° W 21:44:12 50° S 22:04:48 10° SE visible
30 Jul - 23:53:10 10° W 00:08:00 33° SSW 00:26:51 10° SSE visible
31 Jul - 02:25:06 10° WSW 02:30:43 11° SW 02:36:30 10° SW visible
31 Jul - 17:14:28 10° SSW 17:21:30 32° SSE 17:33:02 10° E daylight
31 Jul - 19:32:15 10° WSW 19:42:18 51° S 20:00:02 10° ESE daylight
31 Jul - 21:52:11 10° W 22:05:19 46° SSW 22:25:34 10° SE visible
01 Aug - 00:15:02 10° W 00:28:55 27° SW 00:46:00 10° S visible
01 Aug - 15:21:53 10° SE 15:23:27 11° SE 15:25:09 10° ESE daylight
01 Aug - 17:34:43 10° SW 17:42:05 37° SSE 17:54:39 10° E daylight
01 Aug - 19:53:01 10° WSW 20:03:18 51° S 20:21:20 10° ESE daylight
01 Aug - 22:13:19 10° W 22:26:26 41° SSW 22:46:01 10° SE visible
